Le nostre stazioni meteo in Italia

Pubblicità
Il mio iltempo24.it
Pantelleria, Italia (16470): Temperatura & dewpoint: 13.03.2019 19:00:00 - 19.03.2019 19:00:00 (CET)Pantelleria, Italia (16470): velocità del vento: 13.03.2019 19:00:00 - 19.03.2019 19:00:00 (CET)Pantelleria, Italia (16470): direzione del vento: 13.03.2019 19:00:00 - 19.03.2019 19:00:00 (CET)Pantelleria, Italia (16470): reduced air pressure: 13.03.2019 19:00:00 - 19.03.2019 19:00:00 (CET)Pantelleria, Italia (16470): visibility: 13.03.2019 19:00:00 - 19.03.2019 19:00:00 (CET)Pantelleria, Italia (16470): ore di luce: 13.03.2019 19:00:00 - 19.03.2019 19:00:00 (CET)
Data & Tempo tt [°C] td [°C] ff [km/h] ff [kn] dd ppp [hPa] vv [km] sd [min]
19.03.2019 19:00:00 12,0 9,9 28 15 N 1016,4 10 0
19.03.2019 18:00:00 12,0 9,2 26 14 NNO 1015,7 20 12
19.03.2019 17:00:00 12,0 9,0 24 13 N 1015,7 20 42
19.03.2019 16:00:00 12,6 9,8 29 16 NNO 1015,6 20 60
19.03.2019 15:00:00 12,8 9,1 31 17 NNO 1016,1 20 60
19.03.2019 14:00:00 12,8 8,7 29 16 NO 1016,2 20 60
19.03.2019 13:00:00 13,2 8,7 28 15 NNO 1017,1 20 60
19.03.2019 12:00:00 13,0 8,5 29 16 NNO 1016,9 20 60
19.03.2019 11:00:00 13,0 8,5 29 16 NNO 1017,1 20 60
19.03.2019 10:00:00 13,0 9,6 29 16 NNO 1016,8 20 60
19.03.2019 09:00:00 12,2 8,7 31 17 NNO 1016,9 20 24
19.03.2019 08:00:00 11,8 9,2 28 15 NNO 1017,0 15 0
19.03.2019 07:00:00 11,2 8,4 26 14 NO 1016,9 15 0
19.03.2019 06:00:00 - - - - - - - -
19.03.2019 05:00:00 - - - - - - - -
19.03.2019 04:00:00 - - - - - - - -
19.03.2019 03:00:00 - - - - - - - -
19.03.2019 02:00:00 - - - - - - - -
19.03.2019 01:00:00 - - - - - - - -
19.03.2019 00:00:00 - - - - - - - -
18.03.2019 23:00:00 - - - - - - - -
18.03.2019 22:00:00 - - - - - - - -
18.03.2019 21:00:00 - - - - - - - -
18.03.2019 20:00:00 - - - - - - - -
18.03.2019 19:00:00 13,4 10,9 18 10 NO 1016,8 10 0
18.03.2019 18:00:00 13,8 11,3 21 11 NO 1015,6 10 24
18.03.2019 17:00:00 14,0 11,5 21 11 NO 1015,6 10 24
18.03.2019 16:00:00 14,8 12,3 24 13 NO 1015,5 15 48
18.03.2019 15:00:00 15,0 12,5 18 10 ONO 1016,7 10 12
18.03.2019 14:00:00 15,0 12,5 21 11 ONO 1016,6 15 18
18.03.2019 13:00:00 15,4 12,9 22 12 NO 1016,6 15 18
18.03.2019 12:00:00 14,8 12,5 18 10 NO 1016,7 15 24
18.03.2019 11:00:00 15,0 12,7 18 10 NO 1016,5 12 60
18.03.2019 10:00:00 15,6 13,1 15 8 ONO 1015,3 18 60
18.03.2019 09:00:00 15,0 13,0 9 5 ONO 1015,3 18 42
18.03.2019 08:00:00 14,4 11,7 9 5 ONO 1014,2 15 6
18.03.2019 07:00:00 13,2 7,2 4 2 SO 1014,2 12 0
18.03.2019 06:00:00 - - - - - - - -
18.03.2019 05:00:00 - - - - - - - -
18.03.2019 04:00:00 - - - - - - - -
18.03.2019 03:00:00 - - - - - - - -
18.03.2019 02:00:00 - - - - - - - -
18.03.2019 01:00:00 - - - - - - - -
18.03.2019 00:00:00 - - - - - - - -
17.03.2019 23:00:00 - - - - - - - -
17.03.2019 22:00:00 - - - - - - - -
17.03.2019 21:00:00 - - - - - - - -
17.03.2019 20:00:00 - - - - - - - -
17.03.2019 19:00:00 14,6 12,6 8 4 SE 1015,3 15 12
17.03.2019 18:00:00 17,2 14,8 8 4 SO 1015,3 18 60
17.03.2019 17:00:00 15,8 13,5 5 3 N 1015,8 20 60
17.03.2019 16:00:00 16,4 13,7 5 3 SSO 1016,4 30 60
17.03.2019 15:00:00 19,8 7,2 13 7 SSO 1016,5 30 60
17.03.2019 14:00:00 18,8 8,2 11 6 SSO 1017,2 30 60
17.03.2019 13:00:00 18,4 5,6 15 8 OSO 1018,5 30 60
17.03.2019 12:00:00 17,4 6,9 18 10 S 1019,4 30 60
17.03.2019 11:00:00 17,0 8,2 18 10 SSO 1019,4 30 60
17.03.2019 10:00:00 16,6 8,8 13 7 S 1019,4 30 60
17.03.2019 09:00:00 15,0 10,0 11 6 SSO 1019,5 30 36
17.03.2019 08:00:00 13,4 9,7 9 5 SSO 1019,3 30 0
17.03.2019 07:00:00 11,6 9,0 11 6 SSO 1019,2 30 0
17.03.2019 06:00:00 - - - - - - - -
17.03.2019 05:00:00 - - - - - - - -
17.03.2019 04:00:00 - - - - - - - -
17.03.2019 03:00:00 - - - - - - - -
17.03.2019 02:00:00 - - - - - - - -
17.03.2019 01:00:00 - - - - - - - -
17.03.2019 00:00:00 - - - - - - - -
16.03.2019 23:00:00 - - - - - - - -
16.03.2019 22:00:00 - - - - - - - -
16.03.2019 21:00:00 - - - - - - - -
16.03.2019 20:00:00 - - - - - - - -
16.03.2019 19:00:00 13,4 10,8 29 16 ONO 1020,8 20 0
16.03.2019 18:00:00 13,6 11,3 28 15 ONO 1020,6 20 60
16.03.2019 17:00:00 14,2 11,7 26 14 ONO 1020,6 20 60
16.03.2019 16:00:00 14,6 12,1 29 16 ONO 1020,6 20 60
16.03.2019 15:00:00 14,4 11,9 26 14 ONO 1021,0 15 60
16.03.2019 14:00:00 14,4 11,9 29 16 O 1021,7 12 42
16.03.2019 13:00:00 14,0 11,5 26 14 O 1022,4 10 6
16.03.2019 12:00:00 13,8 11,5 22 12 O 1022,4 10 24
16.03.2019 11:00:00 13,4 10,9 26 14 O 1022,5 10 24
16.03.2019 10:00:00 13,4 11,1 21 11 O 1022,3 10 30
16.03.2019 09:00:00 13,4 10,9 26 14 O 1022,1 10 24
16.03.2019 08:00:00 13,0 10,4 24 13 O 1021,5 10 0
16.03.2019 07:00:00 12,8 10,4 21 11 ONO 1020,8 10 0
16.03.2019 06:00:00 - - - - - - - -
16.03.2019 05:00:00 - - - - - - - -
16.03.2019 04:00:00 - - - - - - - -
16.03.2019 03:00:00 - - - - - - - -
16.03.2019 02:00:00 - - - - - - - -
16.03.2019 01:00:00 - - - - - - - -
16.03.2019 00:00:00 - - - - - - - -
15.03.2019 23:00:00 - - - - - - - -
15.03.2019 22:00:00 - - - - - - - -
15.03.2019 21:00:00 - - - - - - - -
15.03.2019 20:00:00 - - - - - - - -
15.03.2019 19:00:00 13,0 10,7 34 18 ONO 1019,8 8 0
15.03.2019 18:00:00 13,0 10,7 31 17 ONO 1019,7 8 0
15.03.2019 17:00:00 13,2 10,9 34 18 ONO 1019,1 8 0
15.03.2019 16:00:00 13,4 11,1 29 16 NNO 1018,9 8 0
15.03.2019 15:00:00 13,4 11,1 37 20 ONO 1018,7 8 0
15.03.2019 14:00:00 13,4 11,1 37 20 ONO 1018,8 8 0
15.03.2019 13:00:00 13,0 10,5 39 21 ONO 1019,5 10 0
15.03.2019 12:00:00 13,0 10,7 35 19 ONO 1019,5 10 0
15.03.2019 11:00:00 12,2 9,6 39 21 ONO 1019,5 10 0
15.03.2019 10:00:00 12,4 10,0 35 19 ONO 1019,3 10 0
15.03.2019 09:00:00 12,0 9,6 37 20 ONO 1018,8 10 0
15.03.2019 08:00:00 11,8 9,5 39 21 ONO 1018,5 10 0
15.03.2019 07:00:00 11,8 9,5 37 20 ONO 1017,9 8 0
15.03.2019 06:00:00 - - - - - - - -
15.03.2019 05:00:00 - - - - - - - -
15.03.2019 04:00:00 - - - - - - - -
15.03.2019 03:00:00 - - - - - - - -
15.03.2019 02:00:00 - - - - - - - -
15.03.2019 01:00:00 - - - - - - - -
15.03.2019 00:00:00 - - - - - - - -
14.03.2019 23:00:00 - - - - - - - -
14.03.2019 22:00:00 - - - - - - - -
14.03.2019 21:00:00 - - - - - - - -
14.03.2019 20:00:00 - - - - - - - -
14.03.2019 19:00:00 11,8 9,9 39 21 ONO 1019,3 12 0
14.03.2019 18:00:00 12,2 9,6 39 21 NO 1018,7 15 42
14.03.2019 17:00:00 12,4 10,0 37 20 NO 1018,1 10 60
14.03.2019 16:00:00 13,0 9,6 42 23 NO 1018,1 15 60
14.03.2019 15:00:00 12,8 10,0 41 22 NO 1017,9 15 60
14.03.2019 14:00:00 13,2 9,6 44 24 NO 1017,9 15 54
14.03.2019 13:00:00 12,6 6,9 44 24 NO 1018,3 20 60
14.03.2019 12:00:00 13,0 8,7 41 22 NO 1018,3 20 48
14.03.2019 11:00:00 12,4 8,7 44 24 NO 1018,2 20 42
14.03.2019 10:00:00 12,2 8,9 39 21 NNO 1017,9 20 60
14.03.2019 09:00:00 12,0 7,3 44 24 ONO 1017,7 20 18
14.03.2019 08:00:00 11,6 7,9 41 22 ONO 1017,6 20 0
14.03.2019 07:00:00 11,2 8,8 37 20 NO 1017,2 20 0
14.03.2019 06:00:00 - - - - - - - -
14.03.2019 05:00:00 - - - - - - - -
14.03.2019 04:00:00 - - - - - - - -
14.03.2019 03:00:00 - - - - - - - -
14.03.2019 02:00:00 - - - - - - - -
14.03.2019 01:00:00 - - - - - - - -
14.03.2019 00:00:00 - - - - - - - -
13.03.2019 23:00:00 - - - - - - - -
13.03.2019 22:00:00 - - - - - - - -
13.03.2019 21:00:00 - - - - - - - -
13.03.2019 20:00:00 - - - - - - - -
13.03.2019 19:00:00 11,6 9,3 18 10 S 1016,9 20 0

tt = Temperatura
td = dewpoint
ff = velocità del vento
dd = direzione del vento
ppp = reduced air pressure
vv = visibility
sd = ore di luce

Stazioni seguenti

WeatherPro
AMSI
MeteoEarth